Location: Poughquag
(41.6090°N, 73.6820°W)
Time: 04:43:39
(UTC-05:00)

Tiangong - Visible Passes

Search period start: 11 December 2023 00:00
Search period end: 21 December 2023 00:00
Orbit: 372 x 383 km, 41.5° (Epoch: 11 December)

Date Brightness Start Highest point End Pass type
(mag) Time Alt. Az. Time Alt. Az. Time Alt. Az.
14 Dec 0.8 06:34:01 10° SSW 06:36:14 18° SSE 06:38:27 10° ESE visible
15 Dec 1.2 05:33:59 10° SSE 05:34:30 10° SE 05:35:00 10° SE visible
16 Dec -0.1 06:06:04 10° SW 06:08:45 27° SSE 06:11:27 10° E visible
17 Dec 0.4 05:06:16 15° SSE 05:06:55 16° SSE 05:08:58 10° ESE visible
17 Dec -1.6 06:40:09 10° WSW 06:43:12 59° SSE 06:46:17 10° E visible
18 Dec -1.0 05:39:50 24° SSW 05:41:14 39° SSE 05:44:10 10° E visible
19 Dec 1.0 04:41:06 15° ESE 04:41:06 15° ESE 04:41:54 10° E visible
19 Dec -2.1 06:13:11 14° WSW 06:15:43 75° S 06:18:50 10° E visible
20 Dec -1.1 05:14:17 44° ESE 05:14:17 44° ESE 05:16:43 10° E visible
